Location: Newark
(51.2625°N, 13.3939°E)
Time: 12:47:12
(UTC+00:00)

Explorer 7 - Pass Details

Date: 19 November 2019
Orbit: 485 x 680 km, 50.3° (Epoch: 06 December)

Event Time Altitude Azimuth Distance (km) Brightness Sun altitude
Rises 05:47:34 0° 278° (W) 2,713 - -6.7°
Exits shadow 05:49:18 - 266° (W) 2,179 9.3 -6.4°
Reaches altitude 10° 05:51:07 10° 247° (WSW) 1,767 9.0 -6.2°
Maximum altitude 05:52:38 12° 225° (SW) 1,630 9.0 -6.0°
Drops below altitude 10° 05:54:07 10° 202° (SSW) 1,728 9.4 -5.8°
Sets 05:57:29 0° 170° (S) 2,573 10.8 -5.3°
